Time,TemperatureF,DewpointF,PressureIn,WindDirection,WindDirectionDegrees,WindSpeedMPH,WindSpeedGustMPH,Humidity,HourlyPrecipIn,Conditions,Clouds,dailyrainin,SoftwareType,DateUTC
2013-02-08 00:05:00,31.8,27.0,29.85,ENE,74,3.0,-999.0,86,-99.99,,,0.00,ADS-WS1 bash script,2013-02-08 05:05:00,
2013-02-08 00:10:00,31.8,28.0,29.85,ENE,74,5.0,-999.0,87,-99.99,,,0.00,ADS-WS1 bash script,2013-02-08 05:10:00,
2013-02-08 00:15:00,31.8,28.0,29.85,East,88,6.0,-999.0,87,-99.99,,,0.00,ADS-WS1 bash script,2013-02-08 05:15:00,
2013-02-08 00:20:00,31.8,28.0,29.85,East,100,5.0,-999.0,87,-99.99,,,0.00,ADS-WS1 bash script,2013-02-08 05:20:00,
2013-02-08 00:25:00,31.8,29.0,29.85,NE,49,9.0,-999.0,89,-99.99,,,0.00,ADS-WS1 bash script,2013-02-08 05:25:00,
2013-02-08 00:30:00,31.8,28.0,29.85,NE,43,1.0,-999.0,88,-99.99,,,0.00,ADS-WS1 bash script,2013-02-08 05:30:00,
2013-02-08 00:35:00,31.8,29.0,29.84,East,83,0.0,-999.0,89,-99.99,,,0.00,ADS-WS1 bash script,2013-02-08 05:35:00,
2013-02-08 00:40:00,31.8,29.0,29.84,NE,43,0.0,-999.0,90,-99.99,,,0.00,ADS-WS1 bash script,2013-02-08 05:40:00,
2013-02-08 00:50:00,31.8,29.0,29.83,North,0,0.0,-999.0,91,-99.99,,,0.00,ADS-WS1 bash script,2013-02-08 05:50:00,
2013-02-08 00:55:00,31.8,29.0,29.83,ESE,117,0.0,-999.0,91,-99.99,,,0.00,ADS-WS1 bash script,2013-02-08 05:55:00,
2013-02-08 01:05:00,31.8,29.0,29.82,East,93,0.0,-999.0,90,-99.99,,,0.00,ADS-WS1 bash script,2013-02-08 06:05:00,
2013-02-08 01:10:00,31.8,29.0,29.82,NE,38,0.0,-999.0,91,-99.99,,,0.00,ADS-WS1 bash script,2013-02-08 06:10:00,
2013-02-08 01:15:00,32.0,29.0,29.82,East,88,0.0,-999.0,91,-99.99,,,0.00,ADS-WS1 bash script,2013-02-08 06:15:00,
2013-02-08 01:20:00,31.8,30.0,29.81,ENE,66,0.0,-999.0,92,-99.99,,,0.00,ADS-WS1 bash script,2013-02-08 06:20:00,
2013-02-08 01:25:00,31.8,29.0,29.80,NE,55,0.0,-999.0,91,-99.99,,,0.00,ADS-WS1 bash script,2013-02-08 06:25:00,
2013-02-08 01:30:00,32.0,29.0,29.81,East,101,0.0,-999.0,91,-99.99,,,0.00,ADS-WS1 bash script,2013-02-08 06:30:00,
2013-02-08 01:40:00,32.0,30.0,29.81,ENE,70,0.0,-999.0,92,-99.99,,,0.00,ADS-WS1 bash script,2013-02-08 06:40:00,
2013-02-08 01:45:00,32.0,30.0,29.80,ENE,66,0.0,-999.0,92,-99.99,,,1.00,ADS-WS1 bash script,2013-02-08 06:45:00,
2013-02-08 01:50:00,32.0,30.0,29.80,East,100,0.0,-999.0,93,-99.99,,,1.00,ADS-WS1 bash script,2013-02-08 06:50:00,
2013-02-08 01:55:00,32.0,30.0,29.80,East,91,0.0,-999.0,92,-99.99,,,1.00,ADS-WS1 bash script,2013-02-08 06:55:00,
2013-02-08 02:00:00,32.0,30.0,29.80,ENE,74,0.0,-999.0,93,-99.99,,,1.00,ADS-WS1 bash script,2013-02-08 07:00:00,
2013-02-08 02:05:00,32.0,30.0,29.80,NE,43,0.0,-999.0,93,-99.99,,,1.00,ADS-WS1 bash script,2013-02-08 07:05:00,
2013-02-08 02:10:00,31.8,30.0,29.79,ENE,59,0.0,-999.0,93,-99.99,,,1.00,ADS-WS1 bash script,2013-02-08 07:10:00,
2013-02-08 02:15:00,31.8,30.0,29.79,East,91,0.0,-999.0,93,-99.99,,,1.00,ADS-WS1 bash script,2013-02-08 07:15:00,
2013-02-08 02:20:00,31.8,30.0,29.80,East,100,0.0,-999.0,93,-99.99,,,1.00,ADS-WS1 bash script,2013-02-08 07:20:00,
2013-02-08 02:25:00,31.6,30.0,29.80,ENE,77,0.0,-999.0,93,-99.99,,,1.00,ADS-WS1 bash script,2013-02-08 07:25:00,
2013-02-08 02:35:00,31.6,30.0,29.79,ESE,104,0.0,-999.0,93,-99.99,,,1.00,ADS-WS1 bash script,2013-02-08 07:35:00,
2013-02-08 02:40:00,31.6,30.0,29.79,ENE,77,0.0,-999.0,94,-99.99,,,1.00,ADS-WS1 bash script,2013-02-08 07:40:00,
2013-02-08 02:45:00,31.6,30.0,29.79,NE,43,0.0,-999.0,94,-99.99,,,1.00,ADS-WS1 bash script,2013-02-08 07:45:00,
2013-02-08 02:55:00,31.6,30.0,29.79,East,86,0.0,-999.0,94,-99.99,,,1.00,ADS-WS1 bash script,2013-02-08 07:55:00,
2013-02-08 03:00:00,31.6,30.0,29.79,ENE,63,0.0,-999.0,94,-99.99,,,1.00,ADS-WS1 bash script,2013-02-08 08:00:00,
2013-02-08 03:05:00,31.6,30.0,29.78,NE,43,0.0,-999.0,94,-99.99,,,1.00,ADS-WS1 bash script,2013-02-08 08:05:00,
2013-02-08 03:10:00,31.6,30.0,29.79,NE,43,0.0,-999.0,94,-99.99,,,1.00,ADS-WS1 bash script,2013-02-08 08:10:00,
2013-02-08 03:15:00,31.4,29.0,29.79,NE,43,0.0,-999.0,94,-99.99,,,1.00,ADS-WS1 bash script,2013-02-08 08:15:00,
2013-02-08 03:20:00,31.4,29.0,29.78,NE,43,0.0,-999.0,94,-99.99,,,1.00,ADS-WS1 bash script,2013-02-08 08:20:00,
2013-02-08 03:25:00,31.4,29.0,29.78,NE,43,0.0,-999.0,93,-99.99,,,1.00,ADS-WS1 bash script,2013-02-08 08:25:00,
2013-02-08 03:30:00,31.4,30.0,29.78,NE,43,0.0,-999.0,95,-99.99,,,1.00,ADS-WS1 bash script,2013-02-08 08:30:00,
2013-02-08 03:35:00,31.4,29.0,29.78,NE,43,0.0,-999.0,94,-99.99,,,1.00,ADS-WS1 bash script,2013-02-08 08:35:00,
2013-02-08 03:40:00,31.2,30.0,29.78,NE,43,0.0,-999.0,95,-99.99,,,1.00,ADS-WS1 bash script,2013-02-08 08:40:00,
2013-02-08 03:45:00,31.2,29.0,29.78,NE,43,0.0,-999.0,94,-99.99,,,1.00,ADS-WS1 bash script,2013-02-08 08:45:00,
2013-02-08 03:50:00,31.2,29.0,29.78,NE,43,0.0,-999.0,94,-99.99,,,1.00,ADS-WS1 bash script,2013-02-08 08:50:00,
2013-02-08 03:55:00,31.1,29.0,29.78,NE,43,0.0,-999.0,94,-99.99,,,1.00,ADS-WS1 bash script,2013-02-08 08:55:00,
2013-02-08 04:00:00,31.1,29.0,29.78,NE,43,0.0,-999.0,94,-99.99,,,1.00,ADS-WS1 bash script,2013-02-08 09:00:00,
2013-02-08 04:05:00,30.9,29.0,29.77,NE,43,0.0,-999.0,94,-99.99,,,1.00,ADS-WS1 bash script,2013-02-08 09:05:00,
2013-02-08 04:10:00,30.9,29.0,29.77,NE,43,0.0,-999.0,94,-99.99,,,1.00,ADS-WS1 bash script,2013-02-08 09:10:00,
2013-02-08 04:15:00,30.9,29.0,29.77,NNE,32,0.0,-999.0,94,-99.99,,,1.00,ADS-WS1 bash script,2013-02-08 09:15:00,
2013-02-08 04:20:00,30.9,29.0,29.78,NE,43,0.0,-999.0,94,-99.99,,,1.00,ADS-WS1 bash script,2013-02-08 09:20:00,
2013-02-08 04:25:00,30.9,29.0,29.77,NE,43,0.0,-999.0,94,-99.99,,,1.00,ADS-WS1 bash script,2013-02-08 09:25:00,
2013-02-08 04:30:00,30.9,29.0,29.78,NE,43,0.0,-999.0,93,-99.99,,,1.00,ADS-WS1 bash script,2013-02-08 09:30:00,
2013-02-08 04:35:00,30.9,29.0,29.78,NE,43,0.0,-999.0,93,-99.99,,,1.00,ADS-WS1 bash script,2013-02-08 09:35:00,
2013-02-08 04:40:00,30.9,29.0,29.79,NE,35,0.0,-999.0,93,-99.99,,,1.00,ADS-WS1 bash script,2013-02-08 09:40:00,
2013-02-08 04:45:00,30.9,29.0,29.78,NNE,21,0.0,-999.0,94,-99.99,,,1.00,ADS-WS1 bash script,2013-02-08 09:45:00,
2013-02-08 04:50:00,30.9,29.0,29.79,NE,43,0.0,-999.0,93,-99.99,,,1.00,ADS-WS1 bash script,2013-02-08 09:50:00,
2013-02-08 05:00:00,30.9,29.0,29.79,NE,43,0.0,-999.0,93,-99.99,,,1.00,ADS-WS1 bash script,2013-02-08 10:00:00,
2013-02-08 05:10:00,30.9,29.0,29.80,NNE,32,0.0,-999.0,93,-99.99,,,1.00,ADS-WS1 bash script,2013-02-08 10:10:00,
2013-02-08 05:15:00,30.9,29.0,29.80,NE,43,0.0,-999.0,93,-99.99,,,1.00,ADS-WS1 bash script,2013-02-08 10:15:00,
2013-02-08 05:20:00,30.9,29.0,29.79,NE,43,0.0,-999.0,93,-99.99,,,1.00,ADS-WS1 bash script,2013-02-08 10:20:00,
2013-02-08 05:25:00,30.9,29.0,29.80,North,0,0.0,-999.0,92,-99.99,,,1.00,ADS-WS1 bash script,2013-02-08 10:25:00,
2013-02-08 05:30:00,30.9,29.0,29.80,NE,43,0.0,-999.0,92,-99.99,,,1.00,ADS-WS1 bash script,2013-02-08 10:30:00,
2013-02-08 05:35:00,30.9,29.0,29.80,NE,43,0.0,-999.0,93,-99.99,,,1.00,ADS-WS1 bash script,2013-02-08 10:35:00,
2013-02-08 05:40:00,30.7,29.0,29.80,NE,43,0.0,-999.0,92,-99.99,,,1.00,ADS-WS1 bash script,2013-02-08 10:40:00,
2013-02-08 05:45:00,30.7,29.0,29.80,West,268,0.0,-999.0,92,-99.99,,,1.00,ADS-WS1 bash script,2013-02-08 10:45:00,
2013-02-08 05:50:00,30.7,29.0,29.81,NW,313,0.0,-999.0,92,-99.99,,,1.00,ADS-WS1 bash script,2013-02-08 10:50:00,
2013-02-08 05:55:00,30.7,28.0,29.81,NW,313,0.0,-999.0,91,-99.99,,,1.00,ADS-WS1 bash script,2013-02-08 10:55:00,
2013-02-08 06:00:00,30.7,29.0,29.81,NNE,15,0.0,-999.0,92,-99.99,,,1.00,ADS-WS1 bash script,2013-02-08 11:00:00,
2013-02-08 06:10:00,30.7,28.0,29.81,NE,43,0.0,-999.0,90,-99.99,,,1.00,ADS-WS1 bash script,2013-02-08 11:10:00,
2013-02-08 06:15:00,30.7,28.0,29.81,North,0,0.0,-999.0,91,-99.99,,,1.00,ADS-WS1 bash script,2013-02-08 11:15:00,
2013-02-08 06:20:00,30.7,29.0,29.81,ENE,74,0.0,-999.0,92,-99.99,,,1.00,ADS-WS1 bash script,2013-02-08 11:20:00,
2013-02-08 06:25:00,30.7,29.0,29.81,North,0,0.0,-999.0,92,-99.99,,,1.00,ADS-WS1 bash script,2013-02-08 11:25:00,
2013-02-08 06:30:00,30.7,28.0,29.83,WNW,285,0.0,-999.0,90,-99.99,,,1.00,ADS-WS1 bash script,2013-02-08 11:30:00,
2013-02-08 06:35:00,30.7,28.0,29.82,NNE,16,0.0,-999.0,91,-99.99,,,1.00,ADS-WS1 bash script,2013-02-08 11:35:00,
2013-02-08 06:40:00,30.7,28.0,29.83,NNE,21,0.0,-999.0,90,-99.99,,,1.00,ADS-WS1 bash script,2013-02-08 11:40:00,
2013-02-08 06:50:00,30.7,28.0,29.84,NNW,341,0.0,-999.0,90,-99.99,,,1.00,ADS-WS1 bash script,2013-02-08 11:50:00,
2013-02-08 06:55:00,30.7,28.0,29.83,NNE,21,0.0,-999.0,90,-99.99,,,1.00,ADS-WS1 bash script,2013-02-08 11:55:00,
2013-02-08 07:00:00,30.9,28.0,29.84,NNW,331,0.0,-999.0,91,-99.99,,,1.00,ADS-WS1 bash script,2013-02-08 12:00:00,
2013-02-08 07:05:00,30.9,29.0,29.84,NE,36,0.0,-999.0,92,-99.99,,,1.00,ADS-WS1 bash script,2013-02-08 12:05:00,
2013-02-08 07:10:00,30.9,28.0,29.84,NNE,21,0.0,-999.0,91,-99.99,,,1.00,ADS-WS1 bash script,2013-02-08 12:10:00,
2013-02-08 07:15:00,31.1,28.0,29.85,North,2,0.0,-999.0,91,-99.99,,,1.00,ADS-WS1 bash script,2013-02-08 12:15:00,
2013-02-08 07:20:00,31.1,28.0,29.86,North,0,0.0,-999.0,90,-99.99,,,1.00,ADS-WS1 bash script,2013-02-08 12:20:00,
2013-02-08 07:25:00,31.1,28.0,29.86,North,9,0.0,-999.0,91,-99.99,,,1.00,ADS-WS1 bash script,2013-02-08 12:25:00,
2013-02-08 07:30:00,31.2,28.0,29.86,NNW,340,0.0,-999.0,91,-99.99,,,1.00,ADS-WS1 bash script,2013-02-08 12:30:00,
2013-02-08 07:35:00,31.1,29.0,29.86,North,5,0.0,-999.0,92,-99.99,,,1.00,ADS-WS1 bash script,2013-02-08 12:35:00,
2013-02-08 07:40:00,31.1,28.0,29.87,NNW,331,0.0,-999.0,91,-99.99,,,1.00,ADS-WS1 bash script,2013-02-08 12:40:00,
2013-02-08 07:50:00,30.7,28.0,29.87,NE,43,0.0,-999.0,91,-99.99,,,1.00,ADS-WS1 bash script,2013-02-08 12:50:00,
2013-02-08 07:55:00,30.7,28.0,29.87,NNE,18,0.0,-999.0,91,-99.99,,,1.00,ADS-WS1 bash script,2013-02-08 12:55:00,
2013-02-08 08:05:00,30.5,27.0,29.88,NNE,31,0.0,-999.0,91,-99.99,,,1.00,ADS-WS1 bash script,2013-02-08 13:05:00,
2013-02-08 08:10:00,30.5,27.0,29.88,North,352,0.0,-999.0,91,-99.99,,,1.00,ADS-WS1 bash script,2013-02-08 13:10:00,
2013-02-08 08:15:00,30.5,28.0,29.88,NNE,21,0.0,-999.0,92,-99.99,,,1.00,ADS-WS1 bash script,2013-02-08 13:15:00,
2013-02-08 08:20:00,30.5,28.0,29.89,East,88,0.0,-999.0,92,-99.99,,,1.00,ADS-WS1 bash script,2013-02-08 13:20:00,
2013-02-08 08:25:00,30.3,27.0,29.89,NNW,330,0.0,-999.0,91,-99.99,,,1.00,ADS-WS1 bash script,2013-02-08 13:25:00,
2013-02-08 08:35:00,30.3,27.0,29.90,NNW,338,0.0,-999.0,91,-99.99,,,1.00,ADS-WS1 bash script,2013-02-08 13:35:00,
2013-02-08 08:45:00,30.2,27.0,29.91,NNW,343,0.0,-999.0,89,-99.99,,,1.00,ADS-WS1 bash script,2013-02-08 13:45:00,
2013-02-08 08:50:00,30.2,27.0,29.91,NNE,12,0.0,-999.0,90,-99.99,,,1.00,ADS-WS1 bash script,2013-02-08 13:50:00,
2013-02-08 08:55:00,30.0,27.0,29.91,NNE,32,0.0,-999.0,89,-99.99,,,1.00,ADS-WS1 bash script,2013-02-08 13:55:00,
2013-02-08 09:00:00,30.0,27.0,29.92,NNE,22,0.0,-999.0,89,-99.99,,,1.00,ADS-WS1 bash script,2013-02-08 14:00:00,
2013-02-08 09:05:00,30.0,27.0,29.92,NNE,22,0.0,-999.0,89,-99.99,,,1.00,ADS-WS1 bash script,2013-02-08 14:05:00,
2013-02-08 09:15:00,30.0,26.0,29.92,ESE,117,0.0,-999.0,88,-99.99,,,1.00,ADS-WS1 bash script,2013-02-08 14:15:00,
2013-02-08 09:20:00,29.8,25.0,29.93,North,8,0.0,-999.0,86,-99.99,,,1.00,ADS-WS1 bash script,2013-02-08 14:20:00,
2013-02-08 09:25:00,29.8,25.0,29.94,NNE,25,0.0,-999.0,86,-99.99,,,1.00,ADS-WS1 bash script,2013-02-08 14:25:00,
2013-02-08 09:30:00,29.8,26.0,29.93,NNE,23,0.0,-999.0,87,-99.99,,,1.00,ADS-WS1 bash script,2013-02-08 14:30:00,
2013-02-08 09:35:00,29.8,25.0,29.94,NE,43,0.0,-999.0,86,-99.99,,,1.00,ADS-WS1 bash script,2013-02-08 14:35:00,
2013-02-08 09:40:00,30.0,25.0,29.94,NW,326,0.0,-999.0,86,-99.99,,,1.00,ADS-WS1 bash script,2013-02-08 14:40:00,
2013-02-08 09:45:00,30.0,25.0,29.94,NNE,26,0.0,-999.0,85,-99.99,,,1.00,ADS-WS1 bash script,2013-02-08 14:45:00,
2013-02-08 09:50:00,30.2,25.0,29.95,North,8,0.0,-999.0,85,-99.99,,,1.00,ADS-WS1 bash script,2013-02-08 14:50:00,
2013-02-08 09:55:00,30.2,25.0,29.95,NNE,21,0.0,-999.0,84,-99.99,,,1.00,ADS-WS1 bash script,2013-02-08 14:55:00,
2013-02-08 10:00:00,30.0,24.0,29.96,NNE,29,0.0,-999.0,83,-99.99,,,1.00,ADS-WS1 bash script,2013-02-08 15:00:00,
2013-02-08 10:05:00,30.2,24.0,29.96,NNE,29,0.0,-999.0,82,-99.99,,,1.00,ADS-WS1 bash script,2013-02-08 15:05:00,
2013-02-08 10:10:00,30.3,24.0,29.96,NE,49,0.0,-999.0,81,-99.99,,,1.00,ADS-WS1 bash script,2013-02-08 15:10:00,
2013-02-08 10:15:00,30.5,24.0,29.97,NNE,32,0.0,-999.0,81,-99.99,,,1.00,ADS-WS1 bash script,2013-02-08 15:15:00,
2013-02-08 10:20:00,30.5,23.0,29.97,NE,38,0.0,-999.0,80,-99.99,,,1.00,ADS-WS1 bash script,2013-02-08 15:20:00,
2013-02-08 10:25:00,30.5,24.0,29.97,NE,38,0.0,-999.0,81,-99.99,,,1.00,ADS-WS1 bash script,2013-02-08 15:25:00,
2013-02-08 10:30:00,30.7,25.0,29.98,NW,323,0.0,-999.0,81,-99.99,,,1.00,ADS-WS1 bash script,2013-02-08 15:30:00,
2013-02-08 10:35:00,30.3,23.0,29.98,North,354,0.0,-999.0,80,-99.99,,,1.00,ADS-WS1 bash script,2013-02-08 15:35:00,
2013-02-08 10:40:00,30.2,23.0,29.99,NE,39,0.0,-999.0,80,-99.99,,,1.00,ADS-WS1 bash script,2013-02-08 15:40:00,
2013-02-08 10:45:00,30.0,23.0,29.99,WNW,299,0.0,-999.0,80,-99.99,,,1.00,ADS-WS1 bash script,2013-02-08 15:45:00,
2013-02-08 10:50:00,30.0,23.0,29.99,North,5,0.0,-999.0,80,-99.99,,,1.00,ADS-WS1 bash script,2013-02-08 15:50:00,
2013-02-08 10:55:00,29.8,23.0,30.01,NNW,335,0.0,-999.0,80,-99.99,,,1.00,ADS-WS1 bash script,2013-02-08 15:55:00,
2013-02-08 11:00:00,29.8,23.0,30.00,NE,36,0.0,-999.0,80,-99.99,,,1.00,ADS-WS1 bash script,2013-02-08 16:00:00,
2013-02-08 11:05:00,29.8,23.0,30.01,NNE,21,0.0,-999.0,79,-99.99,,,1.00,ADS-WS1 bash script,2013-02-08 16:05:00,
2013-02-08 11:10:00,30.0,23.0,30.01,North,354,0.0,-999.0,79,-99.99,,,1.00,ADS-WS1 bash script,2013-02-08 16:10:00,
2013-02-08 11:15:00,30.0,22.0,30.02,NNW,330,0.0,-999.0,77,-99.99,,,1.00,ADS-WS1 bash script,2013-02-08 16:15:00,
2013-02-08 11:20:00,30.0,23.0,30.02,NNE,29,0.0,-999.0,78,-99.99,,,1.00,ADS-WS1 bash script,2013-02-08 16:20:00,
2013-02-08 11:25:00,29.8,23.0,30.03,NW,326,0.0,-999.0,78,-99.99,,,1.00,ADS-WS1 bash script,2013-02-08 16:25:00,
2013-02-08 11:30:00,29.4,21.0,30.03,NNW,335,0.0,-999.0,76,-99.99,,,1.00,ADS-WS1 bash script,2013-02-08 16:30:00,
2013-02-08 11:35:00,29.3,22.0,30.04,NNW,335,0.0,-999.0,78,-99.99,,,1.00,ADS-WS1 bash script,2013-02-08 16:35:00,
2013-02-08 11:40:00,29.3,22.0,30.04,NE,43,0.0,-999.0,78,-99.99,,,1.00,ADS-WS1 bash script,2013-02-08 16:40:00,
2013-02-08 11:45:00,28.9,21.0,30.04,NNW,348,0.0,-999.0,77,-99.99,,,1.00,ADS-WS1 bash script,2013-02-08 16:45:00,
2013-02-08 11:50:00,28.7,22.0,30.04,North,5,0.0,-999.0,78,-99.99,,,1.00,ADS-WS1 bash script,2013-02-08 16:50:00,
2013-02-08 11:55:00,28.5,20.0,30.04,North,11,0.0,-999.0,77,-99.99,,,1.00,ADS-WS1 bash script,2013-02-08 16:55:00,
2013-02-08 12:00:00,28.2,20.0,30.04,NNE,29,0.0,-999.0,77,-99.99,,,1.00,ADS-WS1 bash script,2013-02-08 17:00:00,
2013-02-08 12:05:00,28.2,21.0,30.05,NE,38,0.0,-999.0,79,-99.99,,,1.00,ADS-WS1 bash script,2013-02-08 17:05:00,
2013-02-08 12:15:00,28.4,21.0,30.06,North,350,0.0,-999.0,79,-99.99,,,1.00,ADS-WS1 bash script,2013-02-08 17:15:00,
2013-02-08 12:20:00,28.4,20.0,30.06,NNE,16,0.0,-999.0,77,-99.99,,,1.00,ADS-WS1 bash script,2013-02-08 17:20:00,
2013-02-08 12:25:00,28.4,21.0,30.06,NNE,21,0.0,-999.0,78,-99.99,,,1.00,ADS-WS1 bash script,2013-02-08 17:25:00,
2013-02-08 12:30:00,28.4,20.0,30.06,North,9,0.0,-999.0,77,-99.99,,,1.00,ADS-WS1 bash script,2013-02-08 17:30:00,
2013-02-08 12:40:00,28.5,20.0,30.07,NNE,29,0.0,-999.0,77,-99.99,,,1.00,ADS-WS1 bash script,2013-02-08 17:40:00,
2013-02-08 12:45:00,28.4,20.0,30.07,North,355,0.0,-999.0,76,-99.99,,,1.00,ADS-WS1 bash script,2013-02-08 17:45:00,
2013-02-08 12:50:00,28.4,20.0,30.07,North,8,0.0,-999.0,76,-99.99,,,1.00,ADS-WS1 bash script,2013-02-08 17:50:00,
2013-02-08 12:55:00,28.4,20.0,30.08,North,350,0.0,-999.0,76,-99.99,,,1.00,ADS-WS1 bash script,2013-02-08 17:55:00,
2013-02-08 13:00:00,28.2,19.0,30.09,NE,36,0.0,-999.0,75,-99.99,,,1.00,ADS-WS1 bash script,2013-02-08 18:00:00,
2013-02-08 13:05:00,28.2,20.0,30.08,NE,43,0.0,-999.0,76,-99.99,,,1.00,ADS-WS1 bash script,2013-02-08 18:05:00,
2013-02-08 13:10:00,28.2,20.0,30.09,North,0,0.0,-999.0,76,-99.99,,,1.00,ADS-WS1 bash script,2013-02-08 18:10:00,
2013-02-08 13:15:00,28.4,19.0,30.09,North,0,0.0,-999.0,75,-99.99,,,1.00,ADS-WS1 bash script,2013-02-08 18:15:00,
2013-02-08 13:20:00,28.4,20.0,30.09,North,2,0.0,-999.0,76,-99.99,,,1.00,ADS-WS1 bash script,2013-02-08 18:20:00,
2013-02-08 13:25:00,28.2,20.0,30.09,NNW,333,0.0,-999.0,76,-99.99,,,1.00,ADS-WS1 bash script,2013-02-08 18:25:00,
2013-02-08 13:35:00,28.0,20.0,30.09,NE,43,0.0,-999.0,76,-99.99,,,1.00,ADS-WS1 bash script,2013-02-08 18:35:00,
2013-02-08 13:40:00,28.0,20.0,30.09,NE,43,0.0,-999.0,76,-99.99,,,1.00,ADS-WS1 bash script,2013-02-08 18:40:00,
2013-02-08 13:50:00,28.0,20.0,30.09,NE,55,0.0,-999.0,76,-99.99,,,1.00,ADS-WS1 bash script,2013-02-08 18:50:00,
2013-02-08 13:55:00,28.4,20.0,30.09,WNW,290,0.0,-999.0,77,-99.99,,,1.00,ADS-WS1 bash script,2013-02-08 18:55:00,
2013-02-08 14:00:00,28.5,19.0,30.10,NE,43,0.0,-999.0,75,-99.99,,,1.00,ADS-WS1 bash script,2013-02-08 19:00:00,
2013-02-08 14:05:00,28.5,20.0,30.10,NNE,32,0.0,-999.0,76,-99.99,,,1.00,ADS-WS1 bash script,2013-02-08 19:05:00,
2013-02-08 14:15:00,28.5,20.0,30.10,NE,36,0.0,-999.0,76,-99.99,,,1.00,ADS-WS1 bash script,2013-02-08 19:15:00,
2013-02-08 14:25:00,28.7,20.0,30.11,NNE,32,0.0,-999.0,75,-99.99,,,1.00,ADS-WS1 bash script,2013-02-08 19:25:00,
2013-02-08 14:30:00,28.5,19.0,30.11,NNE,21,0.0,-999.0,75,-99.99,,,1.00,ADS-WS1 bash script,2013-02-08 19:30:00,
2013-02-08 14:35:00,28.7,21.0,30.11,NNW,347,0.0,-999.0,76,-99.99,,,1.00,ADS-WS1 bash script,2013-02-08 19:35:00,
2013-02-08 14:40:00,28.9,21.0,30.12,North,5,0.0,-999.0,76,-99.99,,,1.00,ADS-WS1 bash script,2013-02-08 19:40:00,
2013-02-08 14:45:00,28.9,21.0,30.11,NE,36,10.0,-999.0,76,-99.99,,,1.00,ADS-WS1 bash script,2013-02-08 19:45:00,
2013-02-08 14:50:00,28.7,21.0,30.11,North,351,9.0,-999.0,76,-99.99,,,1.00,ADS-WS1 bash script,2013-02-08 19:50:00,
2013-02-08 14:55:00,28.9,21.0,30.11,NW,326,4.0,-999.0,77,-99.99,,,1.00,ADS-WS1 bash script,2013-02-08 19:55:00,
2013-02-08 15:00:00,28.9,20.0,30.11,NNE,12,5.0,-999.0,75,-99.99,,,1.00,ADS-WS1 bash script,2013-02-08 20:00:00,
2013-02-08 15:05:00,28.9,21.0,30.12,NNE,21,4.0,-999.0,76,-99.99,,,1.00,ADS-WS1 bash script,2013-02-08 20:05:00,
2013-02-08 15:10:00,28.9,20.0,30.12,NW,313,7.0,-999.0,75,-99.99,,,1.00,ADS-WS1 bash script,2013-02-08 20:10:00,
2013-02-08 15:15:00,28.9,20.0,30.12,NNW,335,2.0,-999.0,75,-99.99,,,1.00,ADS-WS1 bash script,2013-02-08 20:15:00,
2013-02-08 15:20:00,28.9,21.0,30.12,NW,313,3.0,-999.0,76,-99.99,,,1.00,ADS-WS1 bash script,2013-02-08 20:20:00,
2013-02-08 15:25:00,29.1,20.0,30.13,North,0,6.0,-999.0,75,-99.99,,,1.00,ADS-WS1 bash script,2013-02-08 20:25:00,
2013-02-08 15:30:00,28.9,20.0,30.13,NNE,26,14.0,-999.0,75,-99.99,,,1.00,ADS-WS1 bash script,2013-02-08 20:30:00,
2013-02-08 15:35:00,28.7,21.0,30.13,NNW,343,6.0,-999.0,76,-99.99,,,1.00,ADS-WS1 bash script,2013-02-08 20:35:00,
2013-02-08 15:40:00,28.7,21.0,30.14,NNW,338,3.0,-999.0,76,-99.99,,,1.00,ADS-WS1 bash script,2013-02-08 20:40:00,
2013-02-08 15:50:00,28.5,20.0,30.14,NNE,23,11.0,-999.0,76,-99.99,,,0.00,ADS-WS1 bash script,2013-02-08 20:50:00,
2013-02-08 15:55:00,28.5,19.0,30.14,North,354,4.0,-999.0,75,-99.99,,,0.00,ADS-WS1 bash script,2013-02-08 20:55:00,
2013-02-08 16:00:00,28.7,21.0,30.14,NNE,29,12.0,-999.0,76,-99.99,,,0.00,ADS-WS1 bash script,2013-02-08 21:00:00,
2013-02-08 16:05:00,28.7,20.0,30.15,North,4,4.0,-999.0,75,-99.99,,,0.00,ADS-WS1 bash script,2013-02-08 21:05:00,
2013-02-08 16:10:00,28.5,19.0,30.15,North,355,8.0,-999.0,74,-99.99,,,0.00,ADS-WS1 bash script,2013-02-08 21:10:00,
2013-02-08 16:15:00,28.5,19.0,30.15,North,354,3.0,-999.0,75,-99.99,,,0.00,ADS-WS1 bash script,2013-02-08 21:15:00,
2013-02-08 16:20:00,28.5,19.0,30.16,North,0,3.0,-999.0,75,-99.99,,,0.00,ADS-WS1 bash script,2013-02-08 21:20:00,
2013-02-08 16:25:00,28.4,19.0,30.16,NW,313,7.0,-999.0,74,-99.99,,,0.00,ADS-WS1 bash script,2013-02-08 21:25:00,
2013-02-08 16:30:00,28.5,20.0,30.17,North,0,3.0,-999.0,76,-99.99,,,0.00,ADS-WS1 bash script,2013-02-08 21:30:00,
2013-02-08 16:35:00,28.2,19.0,30.17,North,11,15.0,-999.0,74,-99.99,,,0.00,ADS-WS1 bash script,2013-02-08 21:35:00,
2013-02-08 16:40:00,28.2,19.0,30.17,NE,52,10.0,-999.0,74,-99.99,,,0.00,ADS-WS1 bash script,2013-02-08 21:40:00,
2013-02-08 16:50:00,28.0,19.0,30.18,NNE,21,3.0,-999.0,73,-99.99,,,0.00,ADS-WS1 bash script,2013-02-08 21:50:00,
2013-02-08 16:55:00,28.0,19.0,30.18,NNE,21,5.0,-999.0,73,-99.99,,,0.00,ADS-WS1 bash script,2013-02-08 21:55:00,
2013-02-08 17:00:00,27.8,19.0,30.19,NNE,23,13.0,-999.0,73,-99.99,,,0.00,ADS-WS1 bash script,2013-02-08 22:00:00,
2013-02-08 17:05:00,27.8,18.0,30.19,North,0,4.0,-999.0,72,-99.99,,,0.00,ADS-WS1 bash script,2013-02-08 22:05:00,
2013-02-08 17:15:00,27.8,18.0,30.20,NW,326,4.0,-999.0,72,-99.99,,,0.00,ADS-WS1 bash script,2013-02-08 22:15:00,
2013-02-08 17:25:00,27.8,19.0,30.20,NNE,21,2.0,-999.0,73,-99.99,,,0.00,ADS-WS1 bash script,2013-02-08 22:25:00,
2013-02-08 17:35:00,27.8,19.0,30.20,NNW,335,1.0,-999.0,73,-99.99,,,0.00,ADS-WS1 bash script,2013-02-08 22:35:00,
2013-02-08 17:40:00,27.6,19.0,30.20,NE,43,3.0,-999.0,75,-99.99,,,0.00,ADS-WS1 bash script,2013-02-08 22:40:00,
2013-02-08 17:45:00,27.6,18.0,30.21,NNE,21,8.0,-999.0,72,-99.99,,,0.00,ADS-WS1 bash script,2013-02-08 22:45:00,
2013-02-08 17:55:00,27.6,19.0,30.21,North,5,5.0,-999.0,73,-99.99,,,0.00,ADS-WS1 bash script,2013-02-08 22:55:00,
2013-02-08 18:00:00,27.6,18.0,30.21,NNE,21,4.0,-999.0,72,-99.99,,,0.00,ADS-WS1 bash script,2013-02-08 23:00:00,
2013-02-08 18:05:00,27.6,18.0,30.22,North,0,6.0,-999.0,70,-99.99,,,0.00,ADS-WS1 bash script,2013-02-08 23:05:00,
2013-02-08 18:10:00,27.5,18.0,30.22,NE,43,5.0,-999.0,72,-99.99,,,0.00,ADS-WS1 bash script,2013-02-08 23:10:00,
2013-02-08 18:15:00,27.3,17.0,30.22,North,0,8.0,-999.0,70,-99.99,,,0.00,ADS-WS1 bash script,2013-02-08 23:15:00,
2013-02-08 18:20:00,27.1,17.0,30.22,NE,43,10.0,-999.0,70,-99.99,,,0.00,ADS-WS1 bash script,2013-02-08 23:20:00,
2013-02-08 18:25:00,27.1,17.0,30.23,North,0,8.0,-999.0,70,-99.99,,,0.00,ADS-WS1 bash script,2013-02-08 23:25:00,
2013-02-08 18:30:00,26.9,16.0,30.23,NE,43,6.0,-999.0,69,-99.99,,,0.00,ADS-WS1 bash script,2013-02-08 23:30:00,
2013-02-08 18:40:00,26.6,17.0,30.23,NNW,335,3.0,-999.0,70,-99.99,,,0.00,ADS-WS1 bash script,2013-02-08 23:40:00,
2013-02-08 18:45:00,26.2,16.0,30.24,ENE,66,3.0,-999.0,70,-99.99,,,0.00,ADS-WS1 bash script,2013-02-08 23:45:00,
2013-02-08 18:50:00,26.2,16.0,30.25,NNE,32,5.0,-999.0,72,-99.99,,,0.00,ADS-WS1 bash script,2013-02-08 23:50:00,
2013-02-08 18:55:00,26.2,16.0,30.24,NE,43,12.0,-999.0,70,-99.99,,,0.00,ADS-WS1 bash script,2013-02-08 23:55:00,
2013-02-08 19:00:00,26.2,16.0,30.25,WNW,290,6.0,-999.0,70,-99.99,,,0.00,ADS-WS1 bash script,2013-02-09 00:00:00,
2013-02-08 19:05:00,26.2,16.0,30.25,NE,35,5.0,-999.0,70,-99.99,,,0.00,ADS-WS1 bash script,2013-02-09 00:05:00,
2013-02-08 19:15:00,25.8,16.0,30.25,NNE,21,3.0,-999.0,70,-99.99,,,0.00,ADS-WS1 bash script,2013-02-09 00:15:00,
2013-02-08 19:20:00,25.8,16.0,30.25,NE,43,3.0,-999.0,71,-99.99,,,0.00,ADS-WS1 bash script,2013-02-09 00:20:00,
2013-02-08 19:25:00,25.7,16.0,30.25,NE,36,5.0,-999.0,70,-99.99,,,0.00,ADS-WS1 bash script,2013-02-09 00:25:00,
2013-02-08 19:30:00,25.3,16.0,30.26,NNE,21,4.0,-999.0,73,-99.99,,,0.00,ADS-WS1 bash script,2013-02-09 00:30:00,
2013-02-08 19:35:00,25.1,15.0,30.26,NNE,29,4.0,-999.0,71,-99.99,,,0.00,ADS-WS1 bash script,2013-02-09 00:35:00,
2013-02-08 19:40:00,25.1,15.0,30.26,NNE,21,2.0,-999.0,72,-99.99,,,0.00,ADS-WS1 bash script,2013-02-09 00:40:00,
2013-02-08 19:45:00,24.9,16.0,30.26,NNE,21,6.0,-999.0,73,-99.99,,,0.00,ADS-WS1 bash script,2013-02-09 00:45:00,
2013-02-08 19:50:00,24.8,15.0,30.27,NNE,26,2.0,-999.0,72,-99.99,,,0.00,ADS-WS1 bash script,2013-02-09 00:50:00,
2013-02-08 19:55:00,24.4,15.0,30.27,NNE,15,1.0,-999.0,74,-99.99,,,0.00,ADS-WS1 bash script,2013-02-09 00:55:00,
2013-02-08 20:00:00,24.2,16.0,30.27,NE,43,2.0,-999.0,76,-99.99,,,0.00,ADS-WS1 bash script,2013-02-09 01:00:00,
2013-02-08 20:05:00,23.5,16.0,30.27,North,0,1.0,-999.0,76,-99.99,,,0.00,ADS-WS1 bash script,2013-02-09 01:05:00,
2013-02-08 20:10:00,23.0,15.0,30.29,North,0,1.0,-999.0,76,-99.99,,,0.00,ADS-WS1 bash script,2013-02-09 01:10:00,
2013-02-08 20:15:00,22.8,16.0,30.28,North,0,3.0,-999.0,79,-99.99,,,0.00,ADS-WS1 bash script,2013-02-09 01:15:00,
2013-02-08 20:20:00,22.6,16.0,30.29,North,350,0.0,-999.0,78,-99.99,,,0.00,ADS-WS1 bash script,2013-02-09 01:20:00,
2013-02-08 20:25:00,22.4,15.0,30.29,North,0,1.0,-999.0,79,-99.99,,,0.00,ADS-WS1 bash script,2013-02-09 01:25:00,
2013-02-08 20:30:00,21.9,15.0,30.28,NW,319,2.0,-999.0,80,-99.99,,,0.00,ADS-WS1 bash script,2013-02-09 01:30:00,
2013-02-08 20:35:00,21.7,15.0,30.29,North,5,1.0,-999.0,79,-99.99,,,0.00,ADS-WS1 bash script,2013-02-09 01:35:00,
2013-02-08 20:40:00,21.5,15.0,30.29,WNW,302,2.0,-999.0,80,-99.99,,,0.00,ADS-WS1 bash script,2013-02-09 01:40:00,
2013-02-08 20:45:00,21.3,15.0,30.29,NNE,21,2.0,-999.0,82,-99.99,,,0.00,ADS-WS1 bash script,2013-02-09 01:45:00,
2013-02-08 20:50:00,21.5,16.0,30.29,NNW,347,1.0,-999.0,81,-99.99,,,0.00,ADS-WS1 bash script,2013-02-09 01:50:00,
2013-02-08 20:55:00,21.3,15.0,30.29,NE,43,0.0,-999.0,82,-99.99,,,0.00,ADS-WS1 bash script,2013-02-09 01:55:00,
2013-02-08 21:00:00,21.0,15.0,30.29,NW,324,1.0,-999.0,82,-99.99,,,0.00,ADS-WS1 bash script,2013-02-09 02:00:00,
2013-02-08 21:05:00,20.6,15.0,30.29,North,0,1.0,-999.0,82,-99.99,,,0.00,ADS-WS1 bash script,2013-02-09 02:05:00,
2013-02-08 21:10:00,20.3,14.0,30.29,NNW,341,0.0,-999.0,83,-99.99,,,0.00,ADS-WS1 bash script,2013-02-09 02:10:00,
2013-02-08 21:15:00,20.1,15.0,30.30,NNW,341,1.0,-999.0,84,-99.99,,,0.00,ADS-WS1 bash script,2013-02-09 02:15:00,
2013-02-08 21:20:00,19.7,15.0,30.30,NNW,335,1.0,-999.0,84,-99.99,,,0.00,ADS-WS1 bash script,2013-02-09 02:20:00,
2013-02-08 21:25:00,19.6,15.0,30.30,North,0,2.0,-999.0,84,-99.99,,,0.00,ADS-WS1 bash script,2013-02-09 02:25:00,
2013-02-08 21:30:00,19.2,14.0,30.31,North,0,1.0,-999.0,85,-99.99,,,0.00,ADS-WS1 bash script,2013-02-09 02:30:00,
2013-02-08 21:35:00,19.0,14.0,30.31,North,0,0.0,-999.0,86,-99.99,,,0.00,ADS-WS1 bash script,2013-02-09 02:35:00,
2013-02-08 21:40:00,18.8,15.0,30.31,NNW,344,1.0,-999.0,87,-99.99,,,0.00,ADS-WS1 bash script,2013-02-09 02:40:00,
2013-02-08 21:45:00,18.7,14.0,30.31,North,0,1.0,-999.0,86,-99.99,,,0.00,ADS-WS1 bash script,2013-02-09 02:45:00,
2013-02-08 21:50:00,18.5,14.0,30.31,NNW,344,1.0,-999.0,87,-99.99,,,0.00,ADS-WS1 bash script,2013-02-09 02:50:00,
2013-02-08 21:55:00,18.3,14.0,30.31,NNW,335,2.0,-999.0,88,-99.99,,,0.00,ADS-WS1 bash script,2013-02-09 02:55:00,
2013-02-08 22:00:00,18.3,14.0,30.32,WNW,302,1.0,-999.0,88,-99.99,,,0.00,ADS-WS1 bash script,2013-02-09 03:00:00,
2013-02-08 22:05:00,18.1,14.0,30.31,North,0,1.0,-999.0,87,-99.99,,,0.00,ADS-WS1 bash script,2013-02-09 03:05:00,
2013-02-08 22:10:00,18.1,14.0,30.32,North,0,0.0,-999.0,87,-99.99,,,0.00,ADS-WS1 bash script,2013-02-09 03:10:00,
2013-02-08 22:15:00,18.1,15.0,30.32,NE,43,0.0,-999.0,89,-99.99,,,0.00,ADS-WS1 bash script,2013-02-09 03:15:00,
2013-02-08 22:20:00,17.9,14.0,30.32,North,0,0.0,-999.0,88,-99.99,,,0.00,ADS-WS1 bash script,2013-02-09 03:20:00,
2013-02-08 22:25:00,17.8,14.0,30.32,NW,313,0.0,-999.0,88,-99.99,,,0.00,ADS-WS1 bash script,2013-02-09 03:25:00,
2013-02-08 22:30:00,17.6,15.0,30.33,NW,313,0.0,-999.0,89,-99.99,,,0.00,ADS-WS1 bash script,2013-02-09 03:30:00,
2013-02-08 22:35:00,17.6,15.0,30.33,NW,313,0.0,-999.0,89,-99.99,,,0.00,ADS-WS1 bash script,2013-02-09 03:35:00,
2013-02-08 22:40:00,17.2,14.0,30.33,NNW,348,0.0,-999.0,90,-99.99,,,0.00,ADS-WS1 bash script,2013-02-09 03:40:00,
2013-02-08 22:45:00,17.0,13.0,30.33,NNW,347,0.0,-999.0,88,-99.99,,,0.00,ADS-WS1 bash script,2013-02-09 03:45:00,
2013-02-08 22:50:00,17.0,14.0,30.33,NW,313,0.0,-999.0,89,-99.99,,,0.00,ADS-WS1 bash script,2013-02-09 03:50:00,
2013-02-08 22:55:00,16.9,14.0,30.33,NNW,328,1.0,-999.0,90,-99.99,,,0.00,ADS-WS1 bash script,2013-02-09 03:55:00,
2013-02-08 23:00:00,16.9,14.0,30.34,North,0,0.0,-999.0,89,-99.99,,,0.00,ADS-WS1 bash script,2013-02-09 04:00:00,
2013-02-08 23:05:00,16.7,14.0,30.33,North,0,0.0,-999.0,89,-99.99,,,0.00,ADS-WS1 bash script,2013-02-09 04:05:00,
2013-02-08 23:10:00,16.5,13.0,30.33,NW,316,0.0,-999.0,90,-99.99,,,0.00,ADS-WS1 bash script,2013-02-09 04:10:00,
2013-02-08 23:20:00,16.3,13.0,30.33,NW,313,1.0,-999.0,90,-99.99,,,0.00,ADS-WS1 bash script,2013-02-09 04:20:00,
2013-02-08 23:25:00,16.3,13.0,30.33,NW,313,2.0,-999.0,90,-99.99,,,0.00,ADS-WS1 bash script,2013-02-09 04:25:00,
2013-02-08 23:35:00,16.5,13.0,30.34,NW,313,2.0,-999.0,90,-99.99,,,0.00,ADS-WS1 bash script,2013-02-09 04:35:00,
2013-02-08 23:40:00,16.7,14.0,30.34,NW,309,0.0,-999.0,90,-99.99,,,0.00,ADS-WS1 bash script,2013-02-09 04:40:00,
2013-02-08 23:50:00,16.5,13.0,30.34,NNW,341,2.0,-999.0,90,-99.99,,,0.00,ADS-WS1 bash script,2013-02-09 04:50:00,
2013-02-08 23:55:00,16.5,13.0,30.34,NNW,338,1.0,-999.0,90,-99.99,,,0.00,ADS-WS1 bash script,2013-02-09 04:55:00,